www.pogodaiklimat.ru

Погода и климат >> Архив погоды >> Россия >> Якутия >> Килиер


ПОГОДА в Килиере

  • Прогноз погоды в Килиере
  • Монитор погоды в Килиере

АРХИВ ПОГОДЫ в Килиере

Время (UTC), дата Ветер
(напр.,м/с)
 
Видим.   Явления Облачность Т
(С)
Тd
(С)
f
(%)
Тe
(С)
Тes
(С)
Комфортность P
(гПа)
Po
(гПа)
Тmin
(С)
Tmax
(С)
R
(мм)
R24
(мм)
S
(см)
12 18.05 СЗ 1 20 км слаб. снег 10/9 600 м
[St As op]
0.0 0.0 100 -2 -2 1014.1 983.0 +3.1 1
15 18.05 С 3 10 км слаб. ливневой снег 10/10 600 м
[Cb cap]
-0.2 -0.2 100 -5 -5 1015.0 983.9
18 18.05 СЗ 2 50 км {ливн. осадки, снег} 10/10 1000 м
[Sc]
-0.1 -0.4 98 -4 -4 1015.5 984.4
21 18.05 СЗ 2 50 км 10/0
[Ac As]
+0.1 +0.1 100 -4 -4 1016.5 985.4
00 19.05 С 5
{10}
50 км 10/0
[Ac trans Cs]
+2.0 -2.7 71 -3 -1 1017.2 986.2 -0.6 0.7
03 19.05 СЗ 4 50 км 10/0
[Cs]
+4.9 -4.2 52 +1 +8 1017.4 986.7
06 19.05 З 4 50 км 4/0
[Cs]
+10.1 -4.5 35 +8 +15 1016.2 986.1
09 19.05 СЗ 4 50 км 10/0
[Cs]
+11.3 -5.3 31 +10 +12 1015.8 985.8
12 19.05 С 2 50 км 10/0
[Cs]
+9.6 -5.4 34 +9 +9 1016.1 986.0 +11.9
15 19.05 штиль 0 50 км 3/1 1000 м
[Sc Ci fib]
-0.5 -6.2 65 -1 -1 1017.4 986.1
18 19.05 Ю 1 50 км 3/3 1000 м
[Sc]
-1.9 -4.7 81 -4 -4 1017.1 985.6
21 19.05 штиль 0 50 км 10/10 1000 м
[Sc]
-1.2 -4.1 81 -2 -2 1016.5 985.3
00 20.05 штиль 0 50 км 10/10 1000 м
[Sc diur, vesp Ac und Ci ing]
+4.5 -2.5 60 +4 +4 1016.2 985.5 -3.3
03 20.05 СЗ 2 50 км 8/3 1000 м
[Cu Sc Cs]
+10.9 -3.5 36 +10 +18 1014.8 984.9
06 20.05 З 4 50 км 4/3 1000 м
[Cu hum Ci fib]
+13.6 -3.0 31 +12 +18 1012.8 983.2
09 20.05 СЗ 3 50 км 4/3 1000 м
[Cu Sc Ci fib]
+14.0 -3.9 29 +13 +16 1011.9 982.4
12 20.05 С 1 50 км 4/0
[Ci fib]
+12.5 -3.4 33 +13 +13 1012.0 982.4 +14.6
15 20.05 штиль 0 50 км 3/0
[Ac trans Ci fib]
-0.2 -6.6 62 -1 -1 1013.3 982.3
18 20.05 штиль 0 50 км 3/0
[Ci fib]
-3.3 -4.4 92 -4 -4 1013.2 981.8
21 20.05 штиль 0 50 км 3/0
[Ci fib]
-2.3 -2.6 98 -4 -3 1012.0 980.7
00 21.05 Ю 4 50 км 1/0
[Ci fib]
+11.2 +0.9 49 +9 +13 1009.0 979.3 -3.5
03 21.05 Ю 4 50 км 3/1 1000 м
[Cu hum Ci fib]
+15.1 -0.3 35 +14 +22 1006.6 977.3
06 21.05 ЮВ 6-10
{12}
50 км 8/4 1000 м
[Cu Sc Ac lent Ci fib]
+17.2 +0.2 32 +16 +18 1004.1 975.1
09 21.05 Ю 4
{10}
50 км 8/6 1000 м
[Cu Sc Ac lent]
+17.6 +0.5 31 +17 +18 1002.4 973.5
12 21.05 Ю 2 50 км 6/6 1000 м
[Sc]
+16.4 +2.5 39 +17 +17 1001.9 972.9 +18.1
15 21.05 штиль 0 50 км 8/8 1000 м
[Sc]
+6.3 +0.7 67 +6 +6 1002.4 972.3
18 21.05 штиль 0 50 км 8/0
[Ac trans]
+0.4 -0.7 92 -1 -1 1001.9 971.2
21 21.05 ЮВ 1 50 км 3/0
[Ci fib]
+1.5 +0.4 92 -0 +1 999.7 969.3
00 22.05 Ю 4 50 км 9/0
[Ac lent Ci]
+15.5 -0.3 34 +15 +18 996.6 967.7 -1.3
03 22.05 ЮВ 7-10
{13}
50 км 8/0
[Ac cast Cc]
+19.4 -1.7 24 +19 +21 993.3 964.8
06 22.05 Ю 6-10
{14}
50 км 10/4 1000 м
[Sc Ac und]
+19.6 +0.2 27 +19 +20 991.3 962.9
09 22.05 ЮЗ 2
{12}
50 км в посл. час ливневой дождь 9/9 600 м
[Cb cap]
+13.0 +10.3 84 +12 +13 992.8 963.7
12 22.05 З 3 20 км слаб. ливневой дождь 10/10 600 м
[Cb cap]
+9.9 +8.7 92 +8 +8 994.7 965.2 +20.4 2
15 22.05 штиль 0 200 м туман 4/0
[Ac trans Ci fib]
+5.5 +5.5 100 +4 +4 995.9 966.0
18 22.05 штиль 0 50 м туман ?/? +0.3 +0.3 100 -1 -1 996.8 966.2
21 22.05 Ю 2 50 км {туман} 6/6 600 м
[Cb calv]
+1.8 +1.8 100 -2 -2 996.9 966.6
00 23.05 Ю 3 50 км {туман} 4/3 1000 м
[Sc Ac trans Ci fib]
+10.5 +8.5 87 +8 +12 995.4 966.0 +0.3
03 23.05 З 4 50 км 10/8 600 м
[Cb cap Ci fib]
+15.0 +5.6 53 +14 +15 994.4 965.5
06 23.05 З 6-10
{12}
50 км 10/8 600 м
[Cb cap Ci fib]
+13.0 +5.3 59 +11 +12 996.3 967.1
09 23.05 СЗ 5
{10}
50 км 9/9 600 м
[Cb cap]
+12.3 +4.9 61 +10 +10 997.7 968.4
12 23.05 СЗ 4 50 км в посл. час ливневой дождь 8/6 600 м
[Cb cap Ci fib]
+10.9 +4.5 65 +9 +9 998.9 969.4 +15.7 0.6
15 23.05 З 3 50 км 4/4 600 м
[Cb cap]
+7.1 +4.1 81 +4 +4 1000.0 970.1
18 23.05 штиль 0 50 км 3/3 1000 м
[Sc]
+0.4 +0.4 100 -1 -1 1001.5 970.8
21 23.05 штиль 0 50 км 6/0
[Cc]
+0.8 +0.8 100 -1 +1 1002.4 971.8
00 24.05 штиль 0 50 км 9/1 1000 м
[Cu hum Cc]
+12.2 +5.3 63 +12 +18 1001.5 972.1 -1.5
03 24.05 СЗ 3 50 км 9/8 600 м
[Cb calv Ci fib]
+15.4 +0.9 37 +15 +17 1000.7 971.6
06 24.05 СЗ 4 50 км 10/8 600 м
[Cb cap Cs]
+18.2 -0.6 28 +18 +19 1000.0 971.2
09 24.05 С 3 50 км 10/9 600 м
[Cb cap Ci fib]
+17.0 -3.0 25 +17 +17 1000.5 971.6
12 24.05 З 3 50 км 10/3 1000 м
[Sc diur, vesp Ci fib]
+13.0 +2.8 50 +12 +12 1003.8 974.4 +19.0
15 24.05 З 2 50 км 8/8 1000 м
[Sc]
+8.7 +1.7 61 +7 +7 1006.5 976.6
18 24.05 З 2 50 км 3/3 1000 м
[Sc]
+4.9 -1.0 66 +3 +3 1009.3 978.9
21 24.05 С 1 50 км 1/1 1000 м
[Sc]
+0.8 -0.9 88 -1 -0 1011.2 980.3
00 25.05 СЗ 5
{10}
50 км 4/4 1000 м
[Cu med, cong]
+8.1 +1.2 62 +5 +7 1012.0 981.9 -0.7
03 25.05 З 5
{10}
50 км 9/9 600 м
[Cb cap]
+9.5 -1.0 48 +7 +7 1011.9 982.0
06 25.05 СЗ 5
{10}
50 км 9/8 600 м
[Cb cap Ci fib]
+11.2 +0.9 49 +9 +10 1011.7 981.9
09 25.05 СЗ 5
{10}
50 км {ливн. осадки} 10/4 600 м
[Cb cap Cs]
+10.1 +0.2 50 +7 +9 1013.1 983.1

 

Местоположение метеостанции Килиер (Якутия, Россия): широта 60.95 долгота 119.30 высота над уровнем моря 249 м.

В архиве по умолчанию представлена погода в Килиере за последнюю неделю. Архивные данные за месяц целиком и за предыдущие месяцы, начиная с января 2011 года, Вы можете получить, выбрав интересующий диапазон дат из раскрывающегося списка и нажав кнопку "Ввод!".


*Определитесь, кто Вы:
робот инопланетянин человек

Внимание! Время в таблицах - всемирное. Для получения местного времени необходимо прибавить поправку, которая равна 9 ч.

Смотрите также архив погоды в соседних городах и на ближайших метеорологических станциях:

Погода в Олекминске (Якутия, Россия) (86 км)
Погода в Маче (Якутия, Россия) (147 км)
Погода в Сунтаре (Якутия, Россия) (163 км)
Погода в Тяне (Якутия, Россия) (219 км)
Погода в Крестяхе (Якутия, Россия) (224 км)
Погода в Ленске (Якутия, Россия) (245 км)
Погода в Джикимде (Якутия, Россия) (253 км)
Погода в Перевозе (Иркутская область, Россия) (255 км)
Погода в Дорожном (Якутия, Россия) (262 км)
Погода в Нюрбе (Якутия, Россия) (264 км)

Пояснения к столбцам:

Ветер - указаны скорость ветра в м/с - средняя за 10 мин, порывы в срок и между сроками (в фигурных скобках) и направление, откуда дует ветер: С - северный, СВ - северо-восточный, В - восточный, ЮВ - юго-восточный, Ю - южный, ЮЗ - юго-западный, З - западный, СЗ - северо-западный.
Видимость - горизонтальная дальность видимости в метрах или километрах. При видимости от 1 до 10 км при отсутствии осадков обычно наблюдается дымка, при ухудшении видимости до 1 км и менее - туман. В сухую погоду видимость может ухудшаться дымом, пылью или мглою.
Явления - указаны атмосферные явления, наблюдавшиеся в срок или в последний час перед сроком; фигурными скобками обозначены явления, наблюдавшиеся между сроками (за 1-3 часа до срока); квадратными скобками обозначены град или гололедные отложения с указанием их диаметра в мм.
Облачность - указаны через наклонную черту общая и нижняя облачность в баллах и высота нижней границы облаков в метрах; квадратными скобками обозначены формы облаков: Ci - перистые, Cs - перисто-слоистые, Cc - перисто-кучевые, Ac - высококучевые, As - высокослоистые, Sc - слоисто-кучевые, Ns - слоисто-дождевые, Cu - кучевые, Cb - кучево-дождевые. Подробнее классификацию облаков см. в Атласе облаков (PDF).
T - Температура воздуха - температура, измеренная на высоте 2 м над землей.
Td - Температура точки росы - температура, при понижении до которой содержащийся в воздухе водяной пар достигнет насыщения.
f - Относительная влажность воздуха - влажноcть воздуха, измеренная на высоте 2 м над землей.
Te - Эффективная температура - температура, которую ощущает одетый по сезону человек в тени. Характеристика душности погоды. При расчете учитывается влияние влажности воздуха и скорости ветра на теплоощущения человека.
Tes - Эффективная температура на солнце - температура, которую ощущает человек, с поправкой на солнечный нагрев. Характеристика знойности погоды. Зависит от высоты солнца над горизонтом, облачности и скорости ветра. Ночью, в пасмурную погоду, а также при ветре 12 м/с и более поправка равна нулю.
P - Атмосферное давление - приведенное к уровню моря атмосферное давление.
Po - Атмосферное давление - измеренное на уровне метеостанции атмосферное давление.
Tmin - Минимальная температура - минимум температуры воздуха на высоте 2 м над землей.
Tmax - Максимальная температура - максимум температуры воздуха на высоте 2 м над землей.
R - Количество осадков - Количество выпавших осадков за период времени, мм. При наведении курсора мыши на число - период времени, за который выпало указанное количество осадков.
R24 - Количество осадков - Количество выпавших осадков за 24 часа, мм.
S - Снежный покров - Высота снежного покрова, см. При наведении курсора мыши на число - состояние снежного покрова и степень покрытия местности в баллах.